Satellite: NOAA-11
Catalog number: 19531
Epoch time: 12095.81569381
Element set: 0875
Inclination: 098.7324 deg
RA of node: 182.5137 deg
Eccentricity: 0.0011982
Arg of perigee: 074.1258 deg
Mean anomaly: 286.1233 deg
Mean motion: 14.14959003 rev/day
Decay rate: -1.66e-06 rev/day^2
Epoch rev: 21413
Checksum: 303
Satellite: NOAA-12
Catalog number: 21263
Epoch time: 12095.97871731
Element set: 0381
Inclination: 098.7338 deg
RA of node: 117.9703 deg
Eccentricity: 0.0014716
Arg of perigee: 054.9869 deg
Mean anomaly: 305.2689 deg
Mean motion: 14.25486122 rev/day
Decay rate: 3.0e-07 rev/day^2
Epoch rev: 08612
Checksum: 314
Satellite: MET-3/5
Catalog number: 21655
Epoch time: 12096.59953500
Element set: 376
Inclination: 082.5596 deg
RA of node: 203.4564 deg
Eccentricity: 0.0014308
Arg of perigee: 140.3259 deg
Mean anomaly: 219.8889 deg
Mean motion: 13.17034610 rev/day
Decay rate: 5.1e-07 rev/day^2
Epoch rev: 99234
Checksum: 311
Satellite: MET-2/21
Catalog number: 22782
Epoch time: 12095.47074904
Element set: 0382
Inclination: 082.5442 deg
RA of node: 091.0021 deg
Eccentricity: 0.0022649
Arg of perigee: 003.6259 deg
Mean anomaly: 356.5068 deg
Mean motion: 13.83678499 rev/day
Decay rate: 1.20e-06 rev/day^2
Epoch rev: 93897
Checksum: 317
Satellite: OKEAN-4
Catalog number: 23317
Epoch time: 12095.92778717
Element set: 0896
Inclination: 082.5367 deg
RA of node: 099.6869 deg
Eccentricity: 0.0019877
Arg of perigee: 231.0753 deg
Mean anomaly: 128.8692 deg
Mean motion: 14.83665798 rev/day
Decay rate: 1.232e-05 rev/day^2
Epoch rev: 94394
Checksum: 378
Satellite: NOAA-14
Catalog number: 23455
Epoch time: 12095.94565361
Element set: 0857
Inclination: 098.8284 deg
RA of node: 180.3605 deg
Eccentricity: 0.0009371
Arg of perigee: 162.9084 deg
Mean anomaly: 197.2401 deg
Mean motion: 14.13886906 rev/day
Decay rate: 3.6e-07 rev/day^2
Epoch rev: 89044
Checksum: 327
Satellite: NOAA-15
Catalog number: 25338
Epoch time: 12095.68521178
Element set: 0213
Inclination: 098.6859 deg
RA of node: 083.3048 deg
Eccentricity: 0.0010118
Arg of perigee: 326.9067 deg
Mean anomaly: 033.1458 deg
Mean motion: 14.25048699 rev/day
Decay rate: 1.69e-06 rev/day^2
Epoch rev: 72238
Checksum: 323
Satellite: RESURS
Catalog number: 25394
Epoch time: 12095.98956506
Element set: 0069
Inclination: 098.3172 deg
RA of node: 088.0967 deg
Eccentricity: 0.0002353
Arg of perigee: 087.4682 deg
Mean anomaly: 272.6764 deg
Mean motion: 14.24280674 rev/day
Decay rate: 6.7e-07 rev/day^2
Epoch rev: 71398
Checksum: 342
Satellite: FENGYUN1
Catalog number: 25730
Epoch time: 12095.95553884
Element set: 0575
Inclination: 098.8430 deg
RA of node: 056.2345 deg
Eccentricity: 0.0017390
Arg of perigee: 214.7721 deg
Mean anomaly: 145.2312 deg
Mean motion: 14.09364883 rev/day
Decay rate: 1.153e-05 rev/day^2
Epoch rev: 66429
Checksum: 309
Satellite: OKEAN-0
Catalog number: 25860
Epoch time: 12095.95518921
Element set: 0610
Inclination: 097.9272 deg
RA of node: 060.1329 deg
Eccentricity: 0.0001739
Arg of perigee: 092.6674 deg
Mean anomaly: 267.4733 deg
Mean motion: 14.74139154 rev/day
Decay rate: 5.63e-06 rev/day^2
Epoch rev: 68378
Checksum: 323
Satellite: NOAA-16
Catalog number: 26536
Epoch time: 12095.80541095
Element set: 0697
Inclination: 099.1030 deg
RA of node: 136.7669 deg
Eccentricity: 0.0009792
Arg of perigee: 290.8196 deg
Mean anomaly: 069.1921 deg
Mean motion: 14.12721699 rev/day
Decay rate: 4.06e-06 rev/day^2
Epoch rev: 59467
Checksum: 343
Satellite: NOAA-17
Catalog number: 27453
Epoch time: 12095.82866294
Element set: 0659
Inclination: 098.3439 deg
RA of node: 126.5487 deg
Eccentricity: 0.0012008
Arg of perigee: 016.8908 deg
Mean anomaly: 343.2661 deg
Mean motion: 14.24412180 rev/day
Decay rate: 2.49e-06 rev/day^2
Epoch rev: 50831
Checksum: 317
Satellite: NOAA-18
Catalog number: 28654
Epoch time: 12095.91905419
Element set: 0135
Inclination: 099.0385 deg
RA of node: 053.4256 deg
Eccentricity: 0.0014474
Arg of perigee: 004.5081 deg
Mean anomaly: 355.6207 deg
Mean motion: 14.11629299 rev/day
Decay rate: 3.12e-06 rev/day^2
Epoch rev: 35422
Checksum: 299
Satellite: NOAA-19
Catalog number: 33591
Epoch time: 12095.83957690
Element set: 0326
Inclination: 098.8588 deg
RA of node: 036.5570 deg
Eccentricity: 0.0013311
Arg of perigee: 226.9910 deg
Mean anomaly: 133.0158 deg
Mean motion: 14.11314611 rev/day
Decay rate: -1.5e-07 rev/day^2
Epoch rev: 16266
Checksum: 299
/EX
SB KEPS @ AMSAT $ORB12096.M
Orbital Elements 12096.MISC
HR AMSAT ORBITAL ELEMENTS FOR MANNED AND MISCELLANEOUS SATELLITES
FROM WA5QGD FORT WORTH,TX April 5, 2012
Send SUBSCRIBE KEPS/UNSUBSCRIBE KEPS to majordomo at amsat.org only
BID: ORB12096.M
TO ALL RADIO AMATEURS BT
Satellite: HUBBLE
Catalog number: 20580
Epoch time: 12095.78878554
Element set: 975
Inclination: 028.4704 deg
RA of node: 263.8165 deg
Eccentricity: 0.0003588
Arg of perigee: 002.1668 deg
Mean anomaly: 357.8931 deg
Mean motion: 15.02341240 rev/day
Decay rate: 2.147e-05 rev/day^2
Epoch rev: 368
Checksum: 305
Satellite: ISS
Catalog number: 25544
Epoch time: 12096.99652534
Element set: 313
Inclination: 051.6394 deg
RA of node: 123.7868 deg
Eccentricity: 0.0008274
Arg of perigee: 250.1209 deg
Mean anomaly: 204.3274 deg
Mean motion: 15.58087733 rev/day
Decay rate: 1.6430e-04 rev/day^2
Epoch rev: 76676
Checksum: 313
Satellite: CO-58
Catalog number: 28895
Epoch time: 12095.64450110
Element set: 0141
Inclination: 097.9242 deg
RA of node: 325.1113 deg
Eccentricity: 0.0018233
Arg of perigee: 026.0735 deg
Mean anomaly: 334.1347 deg
Mean motion: 14.60546932 rev/day
Decay rate: 6.25e-06 rev/day^2
Epoch rev: 34292
Checksum: 286
Satellite: FALCON
Catalog number: 30776
Epoch time: 12095.93021944
Element set: 0333
Inclination: 035.4333 deg
RA of node: 004.1098 deg
Eccentricity: 0.0001241
Arg of perigee: 064.5562 deg
Mean anomaly: 295.5282 deg
Mean motion: 15.06998714 rev/day
Decay rate: 4.395e-05 rev/day^2
Epoch rev: 27919
Checksum: 300
Satellite: MAST
Catalog number: 31126
Epoch time: 12095.93940368
Element set: 0431
Inclination: 097.8770 deg
RA of node: 111.3197 deg
Eccentricity: 0.0093819
Arg of perigee: 339.7241 deg
Mean anomaly: 020.0253 deg
Mean motion: 14.54091903 rev/day
Decay rate: 7.29e-06 rev/day^2
Epoch rev: 26362
Checksum: 294
Satellite: CAPE1
Catalog number: 31130
Epoch time: 12095.50021847
Element set: 0436
Inclination: 097.8855 deg
RA of node: 107.3360 deg
Eccentricity: 0.0101256
Arg of perigee: 353.9049 deg
Mean anomaly: 006.0934 deg
Mean motion: 14.52846646 rev/day
Decay rate: 9.94e-06 rev/day^2
Epoch rev: 26307
Checksum: 293
Satellite: COMPASS
Catalog number: 32787
Epoch time: 12095.83689649
Element set: 0269
Inclination: 097.8076 deg
RA of node: 158.7849 deg
Eccentricity: 0.0014485
Arg of perigee: 303.1137 deg
Mean anomaly: 056.8675 deg
Mean motion: 14.83704717 rev/day
Decay rate: 2.142e-05 rev/day^2
Epoch rev: 21293
Checksum: 346
Satellite: AAUSAT2
Catalog number: 32788
Epoch time: 12095.61959079
Element set: 0260
Inclination: 097.8088 deg
RA of node: 158.9160 deg
Eccentricity: 0.0013403
Arg of perigee: 304.0015 deg
Mean anomaly: 055.9979 deg
Mean motion: 14.84003364 rev/day
Decay rate: 2.846e-05 rev/day^2
Epoch rev: 21292
Checksum: 316
Satellite: DO-64
Catalog number: 32789
Epoch time: 12095.73591654
Element set: 0275
Inclination: 097.8191 deg
RA of node: 160.7845 deg
Eccentricity: 0.0013576
Arg of perigee: 300.4545 deg
Mean anomaly: 059.5429 deg
Mean motion: 14.85281878 rev/day
Decay rate: 4.052e-05 rev/day^2
Epoch rev: 21297
Checksum: 346
Satellite: CO-66
Catalog number: 32791
Epoch time: 12095.66400094
Element set: 0263
Inclination: 097.8068 deg
RA of node: 158.4124 deg
Eccentricity: 0.0014856
Arg of perigee: 304.4004 deg
Mean anomaly: 055.5883 deg
Mean motion: 14.83173418 rev/day
Decay rate: 1.722e-05 rev/day^2
Epoch rev: 21284
Checksum: 305
Satellite: RS-30
Catalog number: 32953
Epoch time: 12096.60906319
Element set: 673
Inclination: 082.5060 deg
RA of node: 340.2793 deg
Eccentricity: 0.0019547
Arg of perigee: 103.9585 deg
Mean anomaly: 256.3675 deg
Mean motion: 12.43021994 rev/day
Decay rate: 1.0e-07 rev/day^2
Epoch rev: 17554
Checksum: 302
Satellite: TACSAT-3
Catalog number: 35001
Epoch time: 12096.54996421
Element set: 932
Inclination: 040.4450 deg
RA of node: 157.3964 deg
Eccentricity: 0.0013301
Arg of perigee: 092.3335 deg
Mean anomaly: 267.9020 deg
Mean motion: 15.90294601 rev/day
Decay rate: 2.87933e-03 rev/day^2
Epoch rev: 16295
Checksum: 294
Satellite: PHARMSAT
Catalog number: 35002
Epoch time: 12095.56602056
Element set: 0851
Inclination: 040.4608 deg
RA of node: 173.8729 deg
Eccentricity: 0.0002306
Arg of perigee: 327.0716 deg
Mean anomaly: 032.9965 deg
Mean motion: 15.71033690 rev/day
Decay rate: 8.1135e-04 rev/day^2
Epoch rev: 16269
Checksum: 285
Satellite: METEOR-M
Catalog number: 35865
Epoch time: 12096.59763274
Element set: 296
Inclination: 098.6623 deg
RA of node: 152.2574 deg
Eccentricity: 0.0001624
Arg of perigee: 268.2783 deg
Mean anomaly: 091.8219 deg
Mean motion: 14.21858726 rev/day
Decay rate: -1.1e-07 rev/day^2
Epoch rev: 13228
Checksum: 318
Satellite: RS-38
Catalog number: 35869
Epoch time: 12096.55897199
Element set: 306
Inclination: 098.6583 deg
RA of node: 152.2267 deg
Eccentricity: 0.0003739
Arg of perigee: 264.6072 deg
Mean anomaly: 095.4683 deg
Mean motion: 14.22061882 rev/day
Decay rate: 2.8e-07 rev/day^2
Epoch rev: 13229
Checksum: 342
Satellite: JUGNU
Catalog number: 37839
Epoch time: 12095.32477040
Element set: 0123
Inclination: 019.9600 deg
RA of node: 085.6726 deg
Eccentricity: 0.0019495
Arg of perigee: 126.3596 deg
Mean anomaly: 233.8582 deg
Mean motion: 14.12039460 rev/day
Decay rate: 6.20e-06 rev/day^2
Epoch rev: 02479
Checksum: 299
